Home   Weather   Vitebsk   Past weeks
Flag for Belarus

Past Weather in Vitebsk, Belarus — Yesterday and Last 2 Weeks

Now
52 °F

Passing clouds.


Feels Like: 51 °F
Forecast: 53 / 39 °F
Wind: 3 mph from West

Location: Vitebsk

Current Time: Oct 23, 2019 at 10:25:23 pm

Latest Report: Oct 23, 2019 at 7:00 pm


Visibility: N/A

Pressure: 30.09 "Hg

Humidity: 72%

Dew Point: 43 °F

Location of VitebskLocation

Past Weather in Vitebsk — Graph

°F

Vitebsk Temperature Yesterday

Maximum temperature yesterday: 63 °F (at 4:00 pm)
Minimum temperature yesterday: 48 °F (at 8:00 am)
Average temperature yesterday: 56 °F

High & Low Weather Summary for the Past Weeks

 TemperatureHumidityPressure
High84 °F (Oct 14, 6:00 pm)100% (Oct 8, 7:00 pm)30.21 "Hg (Oct 8, 7:00 pm)
Low37 °F (Oct 8, 7:00 pm)33% (Oct 14, 6:00 pm)29.56 "Hg (Oct 10, 1:32 pm)
Average53 °F83%29.92 "Hg
* Reported Oct 8 7:00 pm — Oct 23 7:00 pm, Vitebsk. Weather by CustomWeather, © 2019

Note: Actual official high and low records may vary slightly from our data, if they occured in-between our weather recording intervals... More about our weather records

Advertising

Vitebsk Weather History for the Previous 24 Hours

Scroll right to see more
 ConditionsComfort  
Time TempWeatherWind HumidityBarometerVisibility
7:00 pm
Wed, Oct 23
52 °FPassing clouds.3 mph72%30.09 "HgN/A
6:00 pm54 °FPartly sunny.10 mph63%30.09 "HgN/A
5:00 pm54 °FPartly sunny.6 mph67%30.09 "HgN/A
4:00 pm54 °FPartly sunny.8 mph72%30.09 "HgN/A
3:00 pm55 °FPartly sunny.8 mph67%30.09 "HgN/A
2:30 pm55 °FPartly sunny.6 mph63%30.09 "HgN/A
2:00 pm55 °FPartly sunny.8 mph63%30.09 "HgN/A
1:30 pm54 °FPartly sunny.10 mph67%30.09 "HgN/A
1:00 pm54 °FPartly sunny.8 mph67%30.09 "HgN/A
12:30 pm54 °FPartly sunny.8 mph77%30.09 "HgN/A
12:00 pm54 °FBroken clouds.6 mph77%30.09 "HgN/A
11:30 am54 °FBroken clouds.6 mph77%30.09 "Hg6 mi
11:00 am54 °FBroken clouds.10 mph77%30.09 "Hg6 mi
10:30 am54 °FBroken clouds.10 mph82%30.09 "Hg5 mi
10:00 am54 °FBroken clouds.10 mph82%30.07 "Hg4 mi
9:00 am54 °FFog.8 mph88%30.07 "Hg3 mi
Weather by CustomWeather, © 2019

See weather overview